Find DASH 1

NORAD ID: 589 Int'l Des: 1963-014 Owner: AFSSD Country: US operational
MEOCIRCULARPOLAR

現在のビュー

3D地球を読み込み中...

DASH 1について

説明を読み込み中...

次回通過

Passes for default location (London). Set your location on the main map for personalized predictions.

高度履歴

Loading altitude history...

軌道要素

1 589U 63014D 26151.02231237 .00000051 00000-0 22717-1 0 9997
2 589 87.3532 192.1906 0053601 320.8484 38.8500 8.65624803992336
Epoch: May 31, 2026 • Age: 22 hours

現在のステータス

高度 3623.1 km
速度 6.33 km/s
衛星直下点 -72.87°S, 38.4°W
タイプ other

Most Searched